Location: Unspecified
(0.0000°N, 0.0000°E)
Time: 03:43:49
(UTC+00:00)

QB50P2 - Pass Details

Date: 17 March 2026
Orbit: 517 x 528 km, 98.1° (Epoch: 20 April)

Event Time Altitude Azimuth Distance (km) Brightness Sun altitude
Rises 03:57:28 0° 43° (NE) 2,623 ? -32.7°
Reaches altitude 10° 04:00:20 10° 68° (ENE) 1,742 ? -32.0°
Maximum altitude 04:02:27 15° 102° (ESE) 1,478 ? -31.5°
Drops below altitude 10° 04:04:34 10° 137° (SE) 1,749 ? -31.0°
Sets 04:07:26 0° 161° (SSE) 2,643 ? -30.2°
